�������l�o���
Date,Time,MP-1(��Sv/h),MP-2(��Sv/h),MP-3(��Sv/h),MP-4(��Sv/h),MP-5(��Sv/h),MP-6(��Sv/h),MP-7(��Sv/h),MP-8(��Sv/h),����,����(m/s),���J
2019/06/11,00:00,0.709,1.005,0.705,1.271,0.926,0.420,0.726,0.693,�k,8.3,�L
2019/06/11,00:10,0.709,1.005,0.708,1.271,0.925,0.421,0.728,0.693,�k,7.1,�L
2019/06/11,00:20,0.710,1.005,0.706,1.271,0.924,0.420,0.727,0.694,�k,7.2,�L
2019/06/11,00:30,0.711,1.006,0.706,1.270,0.922,0.419,0.727,0.694,�k,7.3,�L
2019/06/11,00:40,0.707,1.002,0.706,1.270,0.922,0.420,0.725,0.695,�k,6.9,�L
2019/06/11,00:50,0.707,1.000,0.706,1.267,0.921,0.420,0.726,0.692,�k,7.5,�L
2019/06/11,01:00,0.707,1.000,0.704,1.267,0.920,0.418,0.725,0.694,�k,7.8,�L
2019/06/11,01:10,0.707,1.000,0.704,1.264,0.919,0.418,0.725,0.691,�k,8.0,�L
2019/06/11,01:20,0.708,1.002,0.703,1.267,0.918,0.419,0.725,0.691,�k,8.7,�L
2019/06/11,01:30,0.705,0.997,0.704,1.265,0.918,0.420,0.724,0.692,�k,8.4,�L
2019/06/11,01:40,0.703,0.999,0.702,1.260,0.914,0.418,0.722,0.690,�k,4.1,�L
2019/06/11,01:50,0.703,0.997,0.703,1.264,0.914,0.419,0.722,0.691,�k,3.2,�L
2019/06/11,02:00,0.703,0.996,0.702,1.260,0.913,0.418,0.721,0.689,�k,7.9,�L
2019/06/11,02:10,0.704,0.998,0.702,1.258,0.914,0.420,0.722,0.690,�k�k��,3.9,�L
2019/06/11,02:20,0.702,0.992,0.702,1.257,0.910,0.418,0.721,0.690,�k��,8.7,�L
2019/06/11,02:30,0.702,0.991,0.700,1.256,0.908,0.419,0.720,0.688,���쓌,1.9,�L
2019/06/11,02:40,0.700,0.988,0.699,1.255,0.908,0.419,0.720,0.689,��,4.5,�L
2019/06/11,02:50,0.701,0.987,0.701,1.252,0.907,0.420,0.719,0.688,�k�k��,12.4,�L
2019/06/11,03:00,0.701,0.989,0.700,1.252,0.905,0.419,0.719,0.685,�쓌,1.7,�L
2019/06/11,03:10,0.700,0.985,0.699,1.248,0.901,0.420,0.719,0.687,�쓌,9.8,�L
2019/06/11,03:20,0.699,0.985,0.701,1.248,0.900,0.419,0.717,0.686,�k�k��,11.7,�L
2019/06/11,03:30,0.700,0.985,0.700,1.246,0.900,0.420,0.719,0.688,�k�k��,8.4,�L
2019/06/11,03:40,0.702,0.986,0.700,1.246,0.900,0.420,0.717,0.687,���쓌,7.0,�L
2019/06/11,03:50,0.700,0.988,0.702,1.248,0.900,0.420,0.717,0.689,�k�k��,7.4,�L
2019/06/11,04:00,0.702,0.990,0.704,1.250,0.904,0.421,0.721,0.689,�k�k��,6.0,�L
2019/06/11,04:10,0.704,0.992,0.702,1.254,0.903,0.423,0.718,0.689,�k�k��,5.6,�L
2019/06/11,04:20,0.704,0.995,0.703,1.252,0.903,0.422,0.720,0.690,�k�k��,10.5,�L
2019/06/11,04:30,0.707,0.996,0.706,1.251,0.906,0.422,0.719,0.690,�k�k��,10.8,�L
2019/06/11,04:40,0.708,0.996,0.705,1.255,0.905,0.420,0.722,0.691,�k�k��,11.3,�L
2019/06/11,04:50,0.708,0.999,0.705,1.255,0.906,0.423,0.721,0.691,�k�k��,9.0,�L
2019/06/11,05:00,0.707,1.001,0.705,1.257,0.905,0.421,0.723,0.693,�k�k��,7.9,�L
2019/06/11,05:10,0.707,1.000,0.705,1.254,0.906,0.421,0.721,0.692,�k�k��,9.6,�L
2019/06/11,05:20,0.708,1.001,0.705,1.258,0.908,0.422,0.722,0.692,�k�k��,6.3,�L
2019/06/11,05:30,0.711,1.001,0.707,1.258,0.910,0.423,0.722,0.694,�k,7.4,�L
2019/06/11,05:40,0.711,1.004,0.708,1.261,0.910,0.421,0.721,0.692,�k�k��,7.4,�L
2019/06/11,05:50,0.712,1.006,0.708,1.264,0.907,0.423,0.723,0.694,�k,7.4,�L
2019/06/11,06:00,0.713,1.007,0.708,1.266,0.912,0.423,0.724,0.693,�k,8.6,�L
2019/06/11,06:10,0.712,1.010,0.707,1.266,0.914,0.421,0.725,0.694,�k,8.4,�L
2019/06/11,06:20,0.713,1.010,0.706,1.265,0.911,0.421,0.726,0.695,�k,8.3,�L
2019/06/11,06:30,0.712,1.011,0.708,1.270,0.914,0.421,0.726,0.695,�k,10.0,�L
2019/06/11,06:40,0.714,1.012,0.707,1.269,0.913,0.419,0.724,0.696,�k,10.8,��
2019/06/11,06:50,0.712,1.011,0.707,1.269,0.913,0.420,0.726,0.697,�k,10.5,�L
2019/06/11,07:00,0.713,1.012,0.706,1.271,0.916,0.418,0.726,0.697,�k,11.3,��
2019/06/11,07:10,0.712,1.012,0.706,1.274,0.915,0.419,0.727,0.697,�k,9.8,��
2019/06/11,07:20,0.709,1.013,0.705,1.271,0.916,0.419,0.727,0.698,�k,9.1,�L
2019/06/11,07:30,0.713,1.011,0.707,1.275,0.916,0.420,0.727,0.698,�k�k��,8.1,�L
2019/06/11,07:40,0.712,1.010,0.705,1.275,0.917,0.418,0.726,0.697,�k,8.4,�L
2019/06/11,07:50,0.713,1.012,0.707,1.278,0.915,0.419,0.727,0.697,�k,9.8,�L
2019/06/11,08:00,0.714,1.012,0.707,1.276,0.917,0.418,0.728,0.698,�k,11.6,�L
2019/06/11,08:10,0.712,1.014,0.706,1.279,0.918,0.419,0.728,0.698,�k,11.4,��
2019/06/11,08:20,0.715,1.017,0.707,1.278,0.919,0.418,0.727,0.698,�k,11.6,��
2019/06/11,08:30,0.713,1.015,0.707,1.281,0.918,0.418,0.728,0.697,�k,10.2,��
2019/06/11,08:40,0.715,1.016,0.708,1.281,0.921,0.419,0.730,0.697,�k,10.8,��
2019/06/11,08:50,0.712,1.014,0.708,1.281,0.920,0.417,0.730,0.697,�k,12.7,��
2019/06/11,09:00,0.712,1.015,0.709,1.280,0.919,0.417,0.731,0.696,�k,11.0,��
2019/06/11,09:10,0.711,1.015,0.707,1.282,0.922,0.418,0.729,0.696,�k,10.6,��
2019/06/11,09:20,0.714,1.015,0.707,1.285,0.922,0.419,0.732,0.696,�k,10.5,��
2019/06/11,09:30,0.711,1.015,0.709,1.285,0.923,0.417,0.730,0.694,�k,11.0,��
2019/06/11,09:40,0.713,1.017,0.710,1.286,0.922,0.419,0.730,0.695,�k,10.8,��
2019/06/11,09:50,0.715,1.018,0.706,1.286,0.924,0.418,0.731,0.697,�k,11.0,��
2019/06/11,10:00,0.715,1.017,0.708,1.290,0.924,0.417,0.734,0.695,�k,10.3,�L
2019/06/11,10:10,0.716,1.019,0.708,1.289,0.924,0.418,0.731,0.697,�k,10.5,��
2019/06/11,10:20,0.714,1.022,0.708,1.289,0.925,0.417,0.730,0.698,�k,10.8,��
2019/06/11,10:30,0.717,1.021,0.709,1.292,0.924,0.417,0.731,0.696,�k,10.6,��
2019/06/11,10:40,0.716,1.021,0.709,1.288,0.928,0.418,0.731,0.698,�k,10.3,��
2019/06/11,10:50,0.717,1.021,0.709,1.291,0.928,0.418,0.734,0.699,�k,11.3,��
2019/06/11,11:00,0.717,1.024,0.713,1.292,0.928,0.419,0.732,0.698,�k,11.6,��
2019/06/11,11:10,0.718,1.024,0.712,1.293,0.931,0.419,0.733,0.699,�k,9.6,��
2019/06/11,11:20,0.718,1.022,0.711,1.293,0.929,0.418,0.735,0.697,�k,8.5,��
2019/06/11,11:30,0.718,1.023,0.711,1.295,0.930,0.419,0.734,0.697,�k,10.2,��
2019/06/11,11:40,0.717,1.026,0.711,1.291,0.931,0.419,0.734,0.697,�k,10.5,��
2019/06/11,11:50,0.718,1.025,0.709,1.296,0.932,0.418,0.736,0.698,�k,9.9,��
2019/06/11,12:00,0.719,1.026,0.711,1.296,0.932,0.419,0.734,0.698,�k,10.5,��
2019/06/11,12:10,0.721,1.024,0.711,1.294,0.933,0.417,0.735,0.697,�k,10.2,��
2019/06/11,12:20,0.719,1.027,0.710,1.296,0.934,0.418,0.734,0.698,�k,9.3,��
2019/06/11,12:30,0.718,1.028,0.712,1.295,0.932,0.420,0.734,0.699,�k,11.0,��
2019/06/11,12:40,0.719,1.027,0.711,1.299,0.936,0.417,0.733,0.699,�k,10.3,��
2019/06/11,12:50,0.719,1.028,0.713,1.296,0.935,0.418,0.736,0.698,�k,10.5,�L
2019/06/11,13:00,0.719,1.029,0.711,1.296,0.937,0.420,0.736,0.700,�k�k��,10.5,�L
2019/06/11,13:10,0.719,1.028,0.715,1.298,0.935,0.420,0.735,0.698,-,-,�L
2019/06/11,13:20,0.721,1.028,0.711,1.299,0.934,0.419,0.736,0.700,-,-,-
2019/06/11,13:30,0.720,1.026,0.713,1.301,0.935,0.418,0.736,0.701,-,-,-
2019/06/11,13:40,0.720,1.029,0.715,1.301,0.937,0.420,0.737,0.700,-,-,-
2019/06/11,13:50,0.722,1.031,0.715,1.300,0.939,0.421,0.738,0.702,-,-,-
2019/06/11,14:00,0.723,1.030,0.715,1.298,0.938,0.420,0.738,0.698,-,-,-
2019/06/11,14:10,0.723,1.029,0.715,1.301,0.938,0.420,0.736,0.700,-,-,-
2019/06/11,14:20,0.721,1.030,0.715,1.301,0.941,0.420,0.736,0.700,-,-,-
2019/06/11,14:30,0.723,1.033,0.715,1.300,0.939,0.421,0.737,0.701,-,-,-
2019/06/11,14:40,0.723,1.030,0.717,1.301,0.940,0.421,0.737,0.701,-,-,-
2019/06/11,14:50,0.722,1.033,0.716,1.298,0.939,0.420,0.738,0.701,-,-,-
2019/06/11,15:00,0.723,1.031,0.713,1.301,0.939,0.421,0.737,0.702,-,-,-
2019/06/11,15:10,0.724,1.033,0.717,1.298,0.941,0.420,0.737,0.701,-,-,-
2019/06/11,15:20,0.724,1.035,0.715,1.302,0.942,0.420,0.737,0.701,-,-,-
2019/06/11,15:30,0.724,1.035,0.714,1.300,0.942,0.422,0.737,0.699,-,-,-
2019/06/11,15:40,0.723,1.032,0.716,1.301,0.943,0.421,0.737,0.702,-,-,-
2019/06/11,15:50,0.722,1.033,0.717,1.302,0.943,0.421,0.737,0.700,-,-,-
2019/06/11,16:00,0.723,1.036,0.717,1.304,0.941,0.421,0.736,0.701,-,-,��
2019/06/11,16:10,0.722,1.037,0.717,1.305,0.942,0.421,0.738,0.701,-,-,��
2019/06/11,16:20,0.722,1.037,0.717,1.304,0.941,0.422,0.737,0.702,�k�k��,9.9,��
2019/06/11,16:30,0.723,1.036,0.717,1.305,0.941,0.420,0.738,0.701,�k,9.8,��
2019/06/11,16:40,0.721,1.036,0.717,1.304,0.943,0.421,0.739,0.702,�k,10.2,��
2019/06/11,16:50,0.721,1.037,0.717,1.306,0.943,0.421,0.739,0.701,�k,9.8,��
2019/06/11,17:00,0.723,1.037,0.716,1.306,0.941,0.421,0.739,0.701,�k,8.8,��
2019/06/11,17:10,0.725,1.038,0.718,1.305,0.943,0.420,0.740,0.702,�k,8.6,��
2019/06/11,17:20,0.726,1.037,0.720,1.305,0.943,0.422,0.739,0.700,�k�k��,8.8,��
2019/06/11,17:30,0.726,1.040,0.717,1.306,0.948,0.423,0.739,0.702,�k,8.4,��
2019/06/11,17:40,0.728,1.039,0.718,1.308,0.944,0.422,0.739,0.703,�k�k��,8.7,��
2019/06/11,17:50,0.726,1.041,0.719,1.306,0.945,0.422,0.738,0.704,�k,8.7,��
2019/06/11,18:00,0.728,1.039,0.720,1.307,0.945,0.423,0.738,0.702,�k,9.7,��
2019/06/11,18:10,0.728,1.038,0.721,1.309,0.945,0.421,0.739,0.703,�k,8.6,��
2019/06/11,18:20,0.730,1.040,0.720,1.309,0.946,0.423,0.737,0.703,�k,8.0,��
2019/06/11,18:30,0.727,1.038,0.722,1.310,0.944,0.422,0.738,0.703,�k,8.8,��
2019/06/11,18:40,0.728,1.039,0.720,1.309,0.945,0.421,0.738,0.704,�k,8.7,�L
2019/06/11,18:50,0.729,1.042,0.721,1.309,0.946,0.420,0.739,0.705,�k,8.6,��
2019/06/11,19:00,0.727,1.043,0.722,1.307,0.946,0.423,0.739,0.704,�k,7.4,��
2019/06/11,19:10,0.730,1.043,0.724,1.310,0.945,0.421,0.737,0.704,�k,7.2,��
2019/06/11,19:20,0.728,1.042,0.721,1.311,0.947,0.422,0.738,0.705,�k,8.4,��
2019/06/11,19:30,0.729,1.042,0.721,1.308,0.946,0.424,0.738,0.703,�k,7.5,��
2019/06/11,19:40,0.730,1.042,0.722,1.309,0.949,0.422,0.738,0.705,�k�k��,8.2,��
2019/06/11,19:50,0.731,1.041,0.721,1.309,0.947,0.423,0.739,0.704,�k,6.3,��
2019/06/11,20:00,0.730,1.042,0.721,1.308,0.949,0.423,0.739,0.706,�k,8.3,��
2019/06/11,20:10,0.732,1.041,0.721,1.307,0.946,0.424,0.740,0.704,�k,8.3,��
2019/06/11,20:20,0.731,1.044,0.722,1.309,0.947,0.423,0.742,0.703,�k,7.4,��
2019/06/11,20:30,0.730,1.044,0.723,1.306,0.949,0.421,0.738,0.706,�k,7.9,��
2019/06/11,20:40,0.730,1.043,0.723,1.308,0.948,0.423,0.739,0.707,�k,8.2,��
2019/06/11,20:50,0.730,1.043,0.722,1.310,0.949,0.423,0.740,0.706,�k,7.7,��
2019/06/11,21:00,0.730,1.044,0.721,1.311,0.950,0.423,0.738,0.705,�k,7.2,��
2019/06/11,21:10,0.730,1.047,0.721,1.308,0.949,0.424,0.738,0.706,�k,6.9,��
2019/06/11,21:20,0.729,1.045,0.721,1.312,0.949,0.424,0.739,0.707,�k,8.1,��
2019/06/11,21:30,0.731,1.046,0.722,1.308,0.948,0.425,0.739,0.705,�k,7.2,��
2019/06/11,21:40,0.732,1.044,0.722,1.311,0.950,0.423,0.739,0.707,�k,7.9,��
2019/06/11,21:50,0.732,1.044,0.723,1.308,0.951,0.423,0.739,0.707,�k,8.8,��
2019/06/11,22:00,0.732,1.044,0.723,1.311,0.952,0.423,0.739,0.706,�k,8.6,��
2019/06/11,22:10,0.730,1.044,0.721,1.310,0.950,0.425,0.740,0.705,�k,7.4,��
2019/06/11,22:20,0.731,1.041,0.722,1.314,0.948,0.423,0.739,0.706,�k,7.1,��
2019/06/11,22:30,0.732,1.046,0.723,1.312,0.949,0.424,0.738,0.706,�k,7.4,��
2019/06/11,22:40,0.731,1.043,0.721,1.313,0.951,0.424,0.741,0.705,�k,6.1,��
2019/06/11,22:50,0.731,1.047,0.722,1.311,0.950,0.423,0.739,0.705,�k,6.7,��
2019/06/11,23:00,0.730,1.044,0.722,1.311,0.953,0.424,0.740,0.705,�k,6.7,��
2019/06/11,23:10,0.731,1.043,0.722,1.310,0.950,0.424,0.740,0.706,�k�k��,5.8,��
2019/06/11,23:20,0.733,1.044,0.722,1.312,0.950,0.424,0.740,0.707,�k�k��,5.2,�L
2019/06/11,23:30,0.732,1.045,0.722,1.312,0.951,0.425,0.740,0.706,�k�k��,4.6,�L
2019/06/11,23:40,0.731,1.044,0.722,1.310,0.954,0.425,0.738,0.707,�k�k��,4.8,�L
2019/06/11,23:50,0.730,1.046,0.722,1.314,0.953,0.424,0.738,0.706,�k��,5.0,�L
